Tracking 18673 objects as of 27-June-2017
HD Live streaming from Space Station
objects crossing your sky now

ATLANTIS

Track ATLANTIS now!
10-day predictions
ATLANTIS is classified as:


NORAD ID: 42737
Int'l Code: 1998-067MS
Perigee: 400.7 km
Apogee: 412.2 km
Inclination: 51.6 °
Period: 92.5 minutes
Semi major axis: 6777 km
RCS: Unknown
Launch date: November 20, 1998
Source: United States (US)
Launch site: TYURATAM MISSILE AND SPACE COMPLEX (TTMTR)
Uplink (MHz):
Downlink (MHz): 436.390
Beacon (MHz):
Mode: 9600bps GMSK
Call sign: WD8DOX
Status: Active

Your satellite tracking list
Your tracking list is empty





NASA's NSSDC Master Catalog

Two Line Element Set (TLE):
1 42737U 98067MS  17177.91202055 +.00020595 +00000-0 +29641-3 0  9996
2 42737 051.6404 349.5514 0008472 335.0076 025.0505 15.55984339004802
Source of the keplerian elements: AFSPC